sat.trackr.live / text

‹ back to catalog

STARLINK-36489

NORAD 67328 · 2026-002Z

PAYLOAD ACTIVE UNKNOWN

§ Identity

Operator
Country
US
Launch date
2026-01-04
Launch site
AFETR
Launch vehicle
Mass (kg)
RCS (m²)

Purposes: comms

External: N2YO · Heavens-Above · Gunter

§ Orbital elements

Epoch: 2026-09-19T11:23:16.028448Z

Period
94.27 min
Inclination
43.0056°
Eccentricity
0.0002845
Mean motion
15.27595878 rev/d
Perigee alt
481.0 km
Apogee alt
485.0 km
Semi-major
6,861.1 km
B*
4.3649e-4
RAAN
311.0640°
Arg perigee
276.1093°
Mean anomaly
83.9434°
Rev number
4,087

§ Raw data

STARLINK-364891 67328U 26002Z   26262.47449107  .00011774  00000+0  43649-3 0  99982 67328  43.0056 311.0640 0002845 276.1093  83.9434 15.27595878 40875

JSON: /api/v1/satellites/67328 · /tle

For live sub-satellite position, see the globe view (requires WebGL).

§ Visibility from observer

Set your observer location to see the next 7 days of passes ≥ 10°. The values pass through the URL so the page stays shareable.

No JS? Fill the form by hand. The geolocation button needs JavaScript.